Location: Caltech
(34.1382°N, 118.1253°W)
Time: 06:13:17
(UTC-07:00)

UOSAT-12 - Visible Passes

Search period start: 27 March 2015 00:00
Search period end: 06 April 2015 00:00
Orbit: 595 x 660 km, 64.6° (Epoch: 26 March)

Date Brightness Start Highest point End Pass type
(mag) Time Alt. Az. Time Alt. Az. Time Alt. Az.
27 Mar 9.2 05:45:03 10° N 05:49:06 29° NE 05:53:08 10° ESE visible
27 Mar 8.4 19:53:10 10° SSE 19:56:30 20° ESE 20:00:02 10° ENE visible
27 Mar 8.6 21:32:07 10° WSW 21:36:26 37° NW 21:40:33 11° N visible
28 Mar 7.6 06:04:49 10° NNW 06:09:27 68° ENE 06:13:58 10° SE visible
28 Mar 7.3 20:12:02 10° S 20:16:31 49° ESE 20:21:04 10° NE visible
28 Mar 9.8 21:53:43 10° W 21:56:58 18° NW 22:00:07 10° N visible
29 Mar 10.0 04:46:07 10° N 04:49:06 17° NE 04:52:11 10° E visible
29 Mar 7.4 20:32:00 10° SW 20:36:38 70° WNW 20:41:21 10° NNE visible
30 Mar 8.8 05:05:23 10° NNW 05:09:39 35° NE 05:13:51 10° ESE visible
30 Mar 9.1 20:52:49 10° WSW 20:56:59 30° NW 21:01:08 10° N visible
31 Mar 7.1 05:25:16 10° NNW 05:29:56 83° ENE 05:34:28 10° SSE visible
31 Mar 7.2 19:32:23 10° SSW 19:36:58 61° ESE 19:41:37 10° NE visible
31 Mar 10.2 21:14:45 10° W 21:17:34 15° NW 21:20:13 10° NNW visible
01 Apr 9.7 04:06:17 10° N 04:09:41 20° NE 04:13:08 10° E visible
01 Apr 7.5 05:45:41 10° NW 05:50:01 39° WSW 05:54:13 10° S visible
01 Apr 8.0 19:52:32 10° SW 19:57:07 56° WNW 20:01:47 10° NNE visible
02 Apr 8.3 04:25:44 10° NNW 04:30:10 43° ENE 04:34:30 10° SE visible
02 Apr 8.6 06:07:01 10° WNW 06:09:58 16° WSW 06:12:43 10° SSW visible
02 Apr 9.5 20:13:35 10° WSW 20:17:31 26° NW 20:21:25 10° N visible
03 Apr 10.2 03:08:00 10° NNE 03:09:34 12° NE 03:11:21 10° ENE visible
03 Apr 6.9 04:45:44 10° NNW 04:50:23 80° WSW 04:54:54 10° SSE visible
03 Apr 10.3 20:35:57 10° WNW 20:38:10 13° NW 20:40:09 10° NNW visible
04 Apr10.403:35:17ESE03:35:17ESE03:25:03NNWvisible
04 Apr 8.7 05:12:56 19° SSW 05:12:56 19° SSW 05:14:25 10° S visible
